"Period start","avg(HW err(1)/warn(2) (#))","avg(Visibility (m))","avg(Weather code (#))","avg(Precip intensity (mm/h))","min(HW err(1)/warn(2) (#))","max(HW err(1)/warn(2) (#))","std(HW err(1)/warn(2) (#))","med(HW err(1)/warn(2) (#))","min(Visibility (m))","max(Visibility (m))","std(Visibility (m))","med(Visibility (m))","min(Weather code (#))","max(Weather code (#))","std(Weather code (#))","med(Weather code (#))","min(Precip intensity (mm/h))","max(Precip intensity (mm/h))","std(Precip intensity (mm/h))","med(Precip intensity (mm/h))"
2013-10-07 00:00:00,2,50000,0,0.00,2,2,0,2,50000,50000,0,50000,0,0,0,0,0.00,0.00,0.00,0.00
2013-10-07 00:10:00,2,49513,0,0.00,2,2,0,2,46838,50000,957,50000,0,0,0,0,0.00,0.00,0.00,0.00
2013-10-07 00:20:00,2,46600,0,0.00,2,2,0,2,33270,50000,4878,48045,0,0,0,0,0.00,0.00,0.00,0.00
2013-10-07 00:30:00,2,45760,0,0.00,2,2,0,2,40406,50000,3739,45768,0,0,0,0,0.00,0.00,0.00,0.00
2013-10-07 00:40:00,2,48587,0,0.00,2,2,0,2,42660,50000,2236,50000,0,0,0,0,0.00,0.00,0.00,0.00
2013-10-07 00:50:00,2,49519,0,0.00,2,2,0,2,45838,50000,1231,50000,0,0,0,0,0.00,0.00,0.00,0.00
2013-10-07 01:00:00,2,47903,0,0.00,2,2,0,2,39648,50000,3157,49058,0,0,0,0,0.00,0.00,0.00,0.00
2013-10-07 01:10:00,2,49991,0,0.00,2,2,0,2,49907,50000,28,50000,0,0,0,0,0.00,0.00,0.00,0.00
2013-10-07 01:20:00,2,49297,0,0.00,2,2,0,2,46359,50000,1361,50000,0,0,0,0,0.00,0.00,0.00,0.00
2013-10-07 01:30:00,2,48630,0,0.00,2,2,0,2,40304,50000,2876,50000,0,0,0,0,0.00,0.00,0.00,0.00
2013-10-07 01:40:00,2,49995,0,0.00,2,2,0,2,49949,50000,15,50000,0,0,0,0,0.00,0.00,0.00,0.00
2013-10-07 01:50:00,2,49556,0,0.00,2,2,0,2,47555,50000,762,50000,0,0,0,0,0.00,0.00,0.00,0.00
2013-10-07 02:00:00,2,48097,0,0.00,2,2,0,2,40533,50000,3202,50000,0,0,0,0,0.00,0.00,0.00,0.00
2013-10-07 02:10:00,2,47964,0,0.00,2,2,0,2,41939,50000,2743,49894,0,0,0,0,0.00,0.00,0.00,0.00
2013-10-07 02:20:00,2,46282,0,0.00,2,2,0,2,37861,50000,3898,47580,0,0,0,0,0.00,0.00,0.00,0.00
2013-10-07 02:30:00,2,49426,0,0.00,2,2,0,2,48157,50000,661,49762,0,0,0,0,0.00,0.00,0.00,0.00
2013-10-07 02:40:00,2,48954,0,0.00,2,2,0,2,44285,50000,2012,50000,0,0,0,0,0.00,0.00,0.00,0.00
2013-10-07 02:50:00,2,49131,0,0.00,2,2,0,2,43867,50000,1913,50000,0,0,0,0,0.00,0.00,0.00,0.00
2013-10-07 03:00:00,2,48635,0,0.00,2,2,0,2,42638,50000,2332,50000,0,0,0,0,0.00,0.00,0.00,0.00
2013-10-07 03:10:00,2,49138,0,0.00,2,2,0,2,46544,50000,1349,50000,0,0,0,0,0.00,0.00,0.00,0.00
2013-10-07 03:20:00,2,49692,0,0.00,2,2,0,2,46924,50000,923,50000,0,0,0,0,0.00,0.00,0.00,0.00
2013-10-07 03:30:00,2,46408,0,0.00,2,2,0,2,38738,50000,4477,49251,0,0,0,0,0.00,0.00,0.00,0.00
2013-10-07 03:40:00,2,44132,0,0.00,2,2,0,2,38135,50000,4180,44094,0,0,0,0,0.00,0.00,0.00,0.00
2013-10-07 03:50:00,2,47919,0,0.00,2,2,0,2,38869,50000,4175,50000,0,0,0,0,0.00,0.00,0.00,0.00
2013-10-07 04:00:00,2,49689,0,0.00,2,2,0,2,46889,50000,933,50000,0,0,0,0,0.00,0.00,0.00,0.00
2013-10-07 04:10:00,2,49694,0,0.00,2,2,0,2,48251,50000,582,50000,0,0,0,0,0.00,0.00,0.00,0.00
2013-10-07 04:20:00,2,47880,0,0.00,2,2,0,2,40940,50000,3140,50000,0,0,0,0,0.00,0.00,0.00,0.00
2013-10-07 04:30:00,2,49040,0,0.00,2,2,0,2,46473,50000,1370,50000,0,0,0,0,0.00,0.00,0.00,0.00
2013-10-07 04:40:00,2,49687,0,0.00,2,2,0,2,46866,50000,940,50000,0,0,0,0,0.00,0.00,0.00,0.00
2013-10-07 04:50:00,2,47492,0,0.00,2,2,0,2,40765,50000,3378,49795,0,0,0,0,0.00,0.00,0.00,0.00
2013-10-07 05:00:00,2,49987,0,0.00,2,2,0,2,49873,50000,38,50000,0,0,0,0,0.00,0.00,0.00,0.00
2013-10-07 05:10:00,2,46934,0,0.00,2,2,0,2,36510,50000,4237,49612,0,0,0,0,0.00,0.00,0.00,0.00
2013-10-07 05:20:00,2,48354,0,0.00,2,2,0,2,41831,50000,2508,49662,0,0,0,0,0.00,0.00,0.00,0.00
2013-10-07 05:30:00,2,49591,0,0.00,2,2,0,2,46170,50000,1143,50000,0,0,0,0,0.00,0.00,0.00,0.00
2013-10-07 05:40:00,2,47930,0,0.00,2,2,0,2,43151,50000,2361,48876,0,0,0,0,0.00,0.00,0.00,0.00
2013-10-07 05:50:00,2,48206,0,0.00,2,2,0,2,41795,50000,2743,50000,0,0,0,0,0.00,0.00,0.00,0.00
2013-10-07 06:00:00,2,47906,0,0.00,2,2,0,2,42973,50000,2743,49926,0,0,0,0,0.00,0.00,0.00,0.00
2013-10-07 06:10:00,2,49378,0,0.00,2,2,0,2,45564,50000,1378,50000,0,0,0,0,0.00,0.00,0.00,0.00
2013-10-07 06:20:00,2,49502,0,0.00,2,2,0,2,46169,50000,1163,50000,0,0,0,0,0.00,0.00,0.00,0.00
2013-10-07 06:30:00,2,49733,0,0.00,2,2,0,2,47333,50000,800,50000,0,0,0,0,0.00,0.00,0.00,0.00
2013-10-07 06:40:00,2,49993,0,0.00,2,2,0,2,49928,50000,22,50000,0,0,0,0,0.00,0.00,0.00,0.00
2013-10-07 06:50:00,2,50000,0,0.00,2,2,0,2,50000,50000,0,50000,0,0,0,0,0.00,0.00,0.00,0.00
2013-10-07 07:00:00,2,49895,0,0.00,2,2,0,2,48954,50000,314,50000,0,0,0,0,0.00,0.00,0.00,0.00
2013-10-07 07:10:00,2,49797,0,0.00,2,2,0,2,47973,50000,608,50000,0,0,0,0,0.00,0.00,0.00,0.00
2013-10-07 07:20:00,2,50000,0,0.00,2,2,0,2,50000,50000,0,50000,0,0,0,0,0.00,0.00,0.00,0.00
2013-10-07 07:30:00,2,50000,0,0.00,2,2,0,2,50000,50000,0,50000,0,0,0,0,0.00,0.00,0.00,0.00
2013-10-07 07:40:00,2,50000,0,0.00,2,2,0,2,50000,50000,0,50000,0,0,0,0,0.00,0.00,0.00,0.00
2013-10-07 07:50:00,2,50000,0,0.00,2,2,0,2,50000,50000,0,50000,0,0,0,0,0.00,0.00,0.00,0.00
2013-10-07 08:00:00,2,50000,0,0.00,2,2,0,2,50000,50000,0,50000,0,0,0,0,0.00,0.00,0.00,0.00
2013-10-07 08:10:00,2,50000,0,0.00,2,2,0,2,50000,50000,0,50000,0,0,0,0,0.00,0.00,0.00,0.00
2013-10-07 08:20:00,2,50000,0,0.00,2,2,0,2,50000,50000,0,50000,0,0,0,0,0.00,0.00,0.00,0.00
2013-10-07 08:30:00,2,50000,0,0.00,2,2,0,2,50000,50000,0,50000,0,0,0,0,0.00,0.00,0.00,0.00
2013-10-07 08:40:00,2,50000,0,0.00,2,2,0,2,50000,50000,0,50000,0,0,0,0,0.00,0.00,0.00,0.00
2013-10-07 08:50:00,2,50000,0,0.00,2,2,0,2,50000,50000,0,50000,0,0,0,0,0.00,0.00,0.00,0.00
2013-10-07 09:00:00,2,50000,0,0.00,2,2,0,2,50000,50000,0,50000,0,0,0,0,0.00,0.00,0.00,0.00
2013-10-07 09:10:00,2,50000,0,0.00,2,2,0,2,50000,50000,0,50000,0,0,0,0,0.00,0.00,0.00,0.00
2013-10-07 09:20:00,2,50000,0,0.00,2,2,0,2,50000,50000,0,50000,0,0,0,0,0.00,0.00,0.00,0.00
2013-10-07 09:30:00,2,50000,0,0.00,2,2,0,2,50000,50000,0,50000,0,0,0,0,0.00,0.00,0.00,0.00
2013-10-07 09:40:00,2,50000,0,0.00,2,2,0,2,50000,50000,0,50000,0,0,0,0,0.00,0.00,0.00,0.00
2013-10-07 09:50:00,2,50000,0,0.00,2,2,0,2,50000,50000,0,50000,0,0,0,0,0.00,0.00,0.00,0.00
2013-10-07 10:00:00,2,50000,0,0.00,2,2,0,2,50000,50000,0,50000,0,0,0,0,0.00,0.00,0.00,0.00
2013-10-07 10:10:00,2,50000,0,0.00,2,2,0,2,50000,50000,0,50000,0,0,0,0,0.00,0.00,0.00,0.00
2013-10-07 10:20:00,2,50000,0,0.00,2,2,0,2,50000,50000,0,50000,0,0,0,0,0.00,0.00,0.00,0.00
2013-10-07 10:30:00,2,50000,0,0.00,2,2,0,2,50000,50000,0,50000,0,0,0,0,0.00,0.00,0.00,0.00
2013-10-07 10:40:00,2,50000,0,0.00,2,2,0,2,50000,50000,0,50000,0,0,0,0,0.00,0.00,0.00,0.00
2013-10-07 10:50:00,2,50000,0,0.00,2,2,0,2,50000,50000,0,50000,0,0,0,0,0.00,0.00,0.00,0.00
2013-10-07 11:00:00,2,50000,0,0.00,2,2,0,2,50000,50000,0,50000,0,0,0,0,0.00,0.00,0.00,0.00
2013-10-07 11:10:00,2,50000,0,0.00,2,2,0,2,50000,50000,0,50000,0,0,0,0,0.00,0.00,0.00,0.00
2013-10-07 11:20:00,2,50000,0,0.00,2,2,0,2,50000,50000,0,50000,0,0,0,0,0.00,0.00,0.00,0.00
2013-10-07 11:30:00,2,50000,0,0.00,2,2,0,2,50000,50000,0,50000,0,0,0,0,0.00,0.00,0.00,0.00
2013-10-07 11:40:00,2,50000,0,0.00,2,2,0,2,50000,50000,0,50000,0,0,0,0,0.00,0.00,0.00,0.00
2013-10-07 11:50:00,2,50000,0,0.00,2,2,0,2,50000,50000,0,50000,0,0,0,0,0.00,0.00,0.00,0.00
2013-10-07 12:00:00,2,50000,0,0.00,2,2,0,2,50000,50000,0,50000,0,0,0,0,0.00,0.00,0.00,0.00
2013-10-07 12:10:00,2,50000,0,0.00,2,2,0,2,50000,50000,0,50000,0,0,0,0,0.00,0.00,0.00,0.00
2013-10-07 12:20:00,2,50000,0,0.00,2,2,0,2,50000,50000,0,50000,0,0,0,0,0.00,0.00,0.00,0.00
2013-10-07 12:30:00,2,50000,0,0.00,2,2,0,2,50000,50000,0,50000,0,0,0,0,0.00,0.00,0.00,0.00
2013-10-07 12:40:00,2,50000,0,0.00,2,2,0,2,50000,50000,0,50000,0,0,0,0,0.00,0.00,0.00,0.00
2013-10-07 12:50:00,2,50000,0,0.00,2,2,0,2,50000,50000,0,50000,0,0,0,0,0.00,0.00,0.00,0.00
2013-10-07 13:00:00,2,44314,8,0.00,2,2,0,2,27282,50000,8818,50000,0,40,16,0,0.00,0.00,0.00,0.00
2013-10-07 13:10:00,2,47572,41,0.00,2,2,0,2,38817,50000,4244,50000,0,77,35,56,0.00,0.00,0.00,0.00
2013-10-07 13:20:00,2,50000,0,0.00,2,2,0,2,50000,50000,0,50000,0,0,0,0,0.00,0.00,0.00,0.00
2013-10-07 13:30:00,2,50000,0,0.00,2,2,0,2,50000,50000,0,50000,0,0,0,0,0.00,0.00,0.00,0.00
2013-10-07 13:40:00,2,50000,0,0.00,2,2,0,2,50000,50000,0,50000,0,0,0,0,0.00,0.00,0.00,0.00
2013-10-07 13:50:00,2,50000,0,0.00,2,2,0,2,50000,50000,0,50000,0,0,0,0,0.00,0.00,0.00,0.00
2013-10-07 14:00:00,2,50000,0,0.00,2,2,0,2,50000,50000,0,50000,0,0,0,0,0.00,0.00,0.00,0.00
2013-10-07 14:10:00,2,50000,0,0.00,2,2,0,2,50000,50000,0,50000,0,0,0,0,0.00,0.00,0.00,0.00
2013-10-07 14:20:00,2,30451,44,0.01,2,2,0,2,16990,50000,13229,23847,0,77,31,56,0.00,0.05,0.02,0.00
2013-10-07 14:30:00,2,44366,22,0.00,2,2,0,2,26090,50000,9008,49964,0,77,34,0,0.00,0.00,0.00,0.00
2013-10-07 14:40:00,2,44993,0,0.00,2,2,0,2,31897,50000,5864,47105,0,0,0,0,0.00,0.00,0.00,0.00
2013-10-07 14:50:00,2,47409,7,0.00,2,2,0,2,39211,50000,4052,50000,0,71,21,0,0.00,0.00,0.00,0.00
2013-10-07 15:00:00,2,32455,73,0.14,2,2,0,2,5234,50000,18582,42021,71,77,3,71,0.00,0.60,0.19,0.00
2013-10-07 15:10:00,2,3642,71,0.86,2,2,0,2,3273,4260,293,3588,71,71,0,71,0.50,1.40,0.28,0.85
2013-10-07 15:20:00,2,2458,71,1.42,2,2,0,2,2227,3031,231,2385,71,71,0,71,0.80,2.50,0.50,1.35
2013-10-07 15:30:00,2,2772,71,1.86,2,2,0,2,2322,3404,344,2843,71,71,0,71,1.25,2.75,0.44,1.93
2013-10-07 15:40:00,2,2786,71,1.85,2,2,0,2,2444,3491,287,2714,71,71,0,71,1.00,3.05,0.56,1.75
2013-10-07 15:50:00,2,5220,71,0.67,2,2,0,2,4039,7373,1047,4787,71,71,0,71,0.25,1.05,0.30,0.73
2013-10-07 16:00:00,2,4793,71,0.28,2,2,0,2,3798,7054,964,4478,71,71,0,71,0.10,0.50,0.12,0.30
2013-10-07 16:10:00,2,4373,73,0.35,2,2,0,2,3347,6012,822,4182,71,77,3,71,0.10,0.50,0.14,0.40
2013-10-07 16:20:00,2,6696,75,0.06,2,2,0,2,5940,7532,522,6736,71,77,3,77,0.05,0.10,0.02,0.05
2013-10-07 16:30:00,2,5836,77,0.15,2,2,0,2,3405,7501,1298,6106,77,77,0,77,0.05,0.50,0.17,0.08
2013-10-07 16:40:00,2,12821,75,0.02,2,2,0,2,5645,27143,7162,10222,71,77,3,77,0.00,0.05,0.02,0.00
2013-10-07 16:50:00,2,27485,44,0.00,2,2,0,2,11484,50000,14611,21350,0,77,36,71,0.00,0.00,0.00,0.00
2013-10-07 17:00:00,2,50000,0,0.00,2,2,0,2,50000,50000,0,50000,0,0,0,0,0.00,0.00,0.00,0.00
2013-10-07 17:10:00,2,50000,0,0.00,2,2,0,2,50000,50000,0,50000,0,0,0,0,0.00,0.00,0.00,0.00
2013-10-07 17:20:00,2,50000,0,0.00,2,2,0,2,50000,50000,0,50000,0,0,0,0,0.00,0.00,0.00,0.00
2013-10-07 17:30:00,2,50000,0,0.00,2,2,0,2,50000,50000,0,50000,0,0,0,0,0.00,0.00,0.00,0.00
2013-10-07 17:40:00,2,49964,0,0.00,2,2,0,2,49642,50000,107,50000,0,0,0,0,0.00,0.00,0.00,0.00
2013-10-07 17:50:00,2,50000,0,0.00,2,2,0,2,50000,50000,0,50000,0,0,0,0,0.00,0.00,0.00,0.00
2013-10-07 18:00:00,2,50000,0,0.00,2,2,0,2,50000,50000,0,50000,0,0,0,0,0.00,0.00,0.00,0.00
2013-10-07 18:10:00,2,50000,0,0.00,2,2,0,2,50000,50000,0,50000,0,0,0,0,0.00,0.00,0.00,0.00
2013-10-07 18:20:00,2,50000,0,0.00,2,2,0,2,50000,50000,0,50000,0,0,0,0,0.00,0.00,0.00,0.00
2013-10-07 18:30:00,2,50000,0,0.00,2,2,0,2,50000,50000,0,50000,0,0,0,0,0.00,0.00,0.00,0.00
2013-10-07 18:40:00,2,50000,0,0.00,2,2,0,2,50000,50000,0,50000,0,0,0,0,0.00,0.00,0.00,0.00
2013-10-07 18:50:00,2,50000,0,0.00,2,2,0,2,50000,50000,0,50000,0,0,0,0,0.00,0.00,0.00,0.00
2013-10-07 19:00:00,2,50000,0,0.00,2,2,0,2,50000,50000,0,50000,0,0,0,0,0.00,0.00,0.00,0.00
2013-10-07 19:10:00,2,50000,0,0.00,2,2,0,2,50000,50000,0,50000,0,0,0,0,0.00,0.00,0.00,0.00
2013-10-07 19:20:00,2,50000,0,0.00,2,2,0,2,50000,50000,0,50000,0,0,0,0,0.00,0.00,0.00,0.00
2013-10-07 19:30:00,2,50000,0,0.00,2,2,0,2,50000,50000,0,50000,0,0,0,0,0.00,0.00,0.00,0.00
2013-10-07 19:40:00,2,50000,0,0.00,2,2,0,2,50000,50000,0,50000,0,0,0,0,0.00,0.00,0.00,0.00
2013-10-07 19:50:00,2,50000,0,0.00,2,2,0,2,50000,50000,0,50000,0,0,0,0,0.00,0.00,0.00,0.00
2013-10-07 20:00:00,2,42954,8,0.01,2,2,0,2,22061,50000,11287,50000,0,40,16,0,0.00,0.05,0.02,0.00
2013-10-07 20:10:00,2,23870,71,0.06,2,2,0,2,10520,38153,10194,21963,40,77,11,74,0.00,0.30,0.09,0.03
2013-10-07 20:20:00,2,37509,74,0.00,2,2,0,2,15922,50000,12278,41428,71,77,3,74,0.00,0.00,0.00,0.00
2013-10-07 20:30:00,2,45528,74,0.00,2,2,0,2,37670,50000,4650,46631,71,77,3,74,0.00,0.00,0.00,0.00
2013-10-07 20:40:00,2,50000,0,0.00,2,2,0,2,50000,50000,0,50000,0,0,0,0,0.00,0.00,0.00,0.00
2013-10-07 20:50:00,2,50000,0,0.00,2,2,0,2,50000,50000,0,50000,0,0,0,0,0.00,0.00,0.00,0.00
2013-10-07 21:00:00,2,49901,0,0.00,2,2,0,2,49014,50000,296,50000,0,0,0,0,0.00,0.00,0.00,0.00
2013-10-07 21:10:00,2,28851,40,0.04,2,2,0,2,7739,50000,14604,23796,0,71,29,40,0.00,0.30,0.09,0.00
2013-10-07 21:20:00,2,7866,71,0.80,2,2,0,2,4558,12418,2300,7530,71,71,0,71,0.10,2.00,0.48,0.80
2013-10-07 21:30:00,2,25357,43,0.47,2,2,0,2,3870,50000,19181,20130,0,71,35,71,0.00,1.20,0.53,0.12
2013-10-07 21:40:00,2,50000,0,0.00,2,2,0,2,50000,50000,0,50000,0,0,0,0,0.00,0.00,0.00,0.00
2013-10-07 21:50:00,2,50000,0,0.00,2,2,0,2,50000,50000,0,50000,0,0,0,0,0.00,0.00,0.00,0.00
2013-10-07 22:00:00,2,49913,0,0.00,2,2,0,2,49134,50000,260,50000,0,0,0,0,0.00,0.00,0.00,0.00
2013-10-07 22:10:00,2,46472,26,0.00,2,2,0,2,25268,50000,7306,50000,0,71,28,20,0.00,0.00,0.00,0.00
2013-10-07 22:20:00,2,23946,76,0.01,2,2,0,2,8846,46201,13662,23190,71,77,2,77,0.00,0.05,0.02,0.00
2013-10-07 22:30:00,2,32937,68,0.03,2,2,0,2,7050,50000,18000,40683,0,77,23,77,0.00,0.15,0.05,0.00
2013-10-07 22:40:00,2,41266,21,0.01,2,2,0,2,12390,50000,13735,48913,0,71,33,0,0.00,0.05,0.02,0.00
2013-10-07 22:50:00,2,37157,71,0.05,2,2,0,2,13665,47932,10688,41454,71,71,0,71,0.00,0.25,0.09,0.00
2013-10-07 23:00:00,2,35184,72,0.04,2,2,0,2,25776,50000,7578,32503,71,77,2,71,0.00,0.10,0.04,0.05
2013-10-07 23:10:00,2,43346,72,0.03,2,2,0,2,29625,50000,8367,49455,71,77,2,71,0.00,0.20,0.06,0.00
2013-10-07 23:20:00,2,49795,22,0.00,2,2,0,2,47952,50000,614,50000,0,77,33,0,0.00,0.00,0.00,0.00
2013-10-07 23:30:00,2,48158,0,0.00,2,2,0,2,42266,50000,2781,50000,0,0,0,0,0.00,0.00,0.00,0.00
2013-10-07 23:40:00,2,50000,0,0.00,2,2,0,2,50000,50000,0,50000,0,0,0,0,0.00,0.00,0.00,0.00
2013-10-07 23:50:00,2,50000,0,0.00,2,2,0,2,50000,50000,0,50000,0,0,0,0,0.00,0.00,0.00,0.00
